﻿_id,日時,10分間移動積算雨量(mm),1時間移動積算雨量(mm),日雨量(mm),累計雨量(mm)
1,2023-06-12T00:00:00,0,0,2,2
2,2023-06-12T00:01:00,0,0,0,2
3,2023-06-12T00:02:00,0,0,0,2
4,2023-06-12T00:03:00,0,0,0,2
5,2023-06-12T00:04:00,0,0,0,2
6,2023-06-12T00:05:00,0,0,0,2
7,2023-06-12T00:06:00,0,0,0,2
8,2023-06-12T00:07:00,0,0,0,2
9,2023-06-12T00:08:00,0,0,0,2
10,2023-06-12T00:09:00,0,0,0,2
11,2023-06-12T00:10:00,0,0,0,2
12,2023-06-12T00:11:00,0,0,0,2
13,2023-06-12T00:12:00,0,0,0,2
14,2023-06-12T00:13:00,0,0,0,2
15,2023-06-12T00:14:00,0,0,0,2
16,2023-06-12T00:15:00,0,0,0,2
17,2023-06-12T00:16:00,0,0,0,2
18,2023-06-12T00:17:00,0,0,0,2
19,2023-06-12T00:18:00,0,0,0,2
20,2023-06-12T00:19:00,0,0,0,2
21,2023-06-12T00:20:00,0,0,0,2
22,2023-06-12T00:21:00,0,0,0,2
23,2023-06-12T00:22:00,0,0,0,2
24,2023-06-12T00:23:00,0,0,0,2
25,2023-06-12T00:24:00,0,0,0,2
26,2023-06-12T00:25:00,0,0,0,2
27,2023-06-12T00:26:00,0,0,0,2
28,2023-06-12T00:27:00,0,0,0,2
29,2023-06-12T00:28:00,0,0,0,2
30,2023-06-12T00:29:00,0,0,0,2
31,2023-06-12T00:30:00,0,0,0,2
32,2023-06-12T00:31:00,0,0,0,2
33,2023-06-12T00:32:00,0,0,0,2
34,2023-06-12T00:33:00,0,0,0,2
35,2023-06-12T00:34:00,0,0,0,2
36,2023-06-12T00:35:00,0,0,0,2
37,2023-06-12T00:36:00,0,0,0,2
38,2023-06-12T00:37:00,0,0,0,2
39,2023-06-12T00:38:00,0,0,0,2
40,2023-06-12T00:39:00,0,0,0,2
41,2023-06-12T00:40:00,0,0,0,2
42,2023-06-12T00:41:00,0,0,0,2
43,2023-06-12T00:42:00,0,0,0,2
44,2023-06-12T00:43:00,0,0,0,2
45,2023-06-12T00:44:00,0,0,0,2
46,2023-06-12T00:45:00,0,0,0,2
47,2023-06-12T00:46:00,0,0,0,2
48,2023-06-12T00:47:00,0,0,0,2
49,2023-06-12T00:48:00,0,0,0,2
50,2023-06-12T00:49:00,0,0,0,2
51,2023-06-12T00:50:00,0,0,0,2
52,2023-06-12T00:51:00,0,0,0,2
53,2023-06-12T00:52:00,0,0,0,2
54,2023-06-12T00:53:00,0,0,0,2
55,2023-06-12T00:54:00,0,0,0,2
56,2023-06-12T00:55:00,0,0,0,2
57,2023-06-12T00:56:00,0,0,0,2
58,2023-06-12T00:57:00,0,0,0,2
59,2023-06-12T00:58:00,0,0,0,2
60,2023-06-12T00:59:00,0,0,0,2
61,2023-06-12T01:00:00,0,0,0,2
62,2023-06-12T01:01:00,0,0,0,2
63,2023-06-12T01:02:00,0,0,0,2
64,2023-06-12T01:03:00,0,0,0,2
65,2023-06-12T01:04:00,0,0,0,2
66,2023-06-12T01:05:00,0,0,0,2
67,2023-06-12T01:06:00,0,0,0,2
68,2023-06-12T01:07:00,0,0,0,2
69,2023-06-12T01:08:00,0,0,0,2
70,2023-06-12T01:09:00,0,0,0,2
71,2023-06-12T01:10:00,0,0,0,2
72,2023-06-12T01:11:00,0,0,0,2
73,2023-06-12T01:12:00,0,0,0,2
74,2023-06-12T01:13:00,0,0,0,2
75,2023-06-12T01:14:00,0,0,0,2
76,2023-06-12T01:15:00,0,0,0,2
77,2023-06-12T01:16:00,0,0,0,2
78,2023-06-12T01:17:00,0,0,0,2
79,2023-06-12T01:18:00,0,0,0,2
80,2023-06-12T01:19:00,0,0,0,2
81,2023-06-12T01:20:00,0,0,0,2
82,2023-06-12T01:21:00,0,0,0,2
83,2023-06-12T01:22:00,0,0,0,2
84,2023-06-12T01:23:00,0,0,0,2
85,2023-06-12T01:24:00,0,0,0,2
86,2023-06-12T01:25:00,0,0,0,2
87,2023-06-12T01:26:00,0,0,0,2
88,2023-06-12T01:27:00,0,0,0,2
89,2023-06-12T01:28:00,0,0,0,2
90,2023-06-12T01:29:00,0,0,0,2
91,2023-06-12T01:30:00,0,0,0,2
92,2023-06-12T01:31:00,0,0,0,2
93,2023-06-12T01:32:00,0,0,0,2
94,2023-06-12T01:33:00,0,0,0,2
95,2023-06-12T01:34:00,0,0,0,2
96,2023-06-12T01:35:00,0,0,0,2
97,2023-06-12T01:36:00,0,0,0,2
98,2023-06-12T01:37:00,0,0,0,2
99,2023-06-12T01:38:00,0,0,0,2
100,2023-06-12T01:39:00,0,0,0,2
101,2023-06-12T01:40:00,0,0,0,2
102,2023-06-12T01:41:00,0,0,0,2
103,2023-06-12T01:42:00,0,0,0,2
104,2023-06-12T01:43:00,0,0,0,2
105,2023-06-12T01:44:00,0,0,0,2
106,2023-06-12T01:45:00,0,0,0,2
107,2023-06-12T01:46:00,0,0,0,2
108,2023-06-12T01:47:00,0,0,0,2
109,2023-06-12T01:48:00,0,0,0,2
110,2023-06-12T01:49:00,0,0,0,2
111,2023-06-12T01:50:00,0,0,0,2
112,2023-06-12T01:51:00,0,0,0,2
113,2023-06-12T01:52:00,0,0,0,2
114,2023-06-12T01:53:00,0,0,0,2
115,2023-06-12T01:54:00,0,0,0,2
116,2023-06-12T01:55:00,0,0,0,2
117,2023-06-12T01:56:00,0,0,0,2
118,2023-06-12T01:57:00,0,0,0,2
119,2023-06-12T01:58:00,0,0,0,2
120,2023-06-12T01:59:00,0,0,0,2
121,2023-06-12T02:00:00,0,0,0,2
122,2023-06-12T02:01:00,0,0,0,2
123,2023-06-12T02:02:00,0,0,0,2
124,2023-06-12T02:03:00,0,0,0,2
125,2023-06-12T02:04:00,0,0,0,2
126,2023-06-12T02:05:00,0,0,0,2
127,2023-06-12T02:06:00,0,0,0,2
128,2023-06-12T02:07:00,0,0,0,2
129,2023-06-12T02:08:00,0,0,0,2
130,2023-06-12T02:09:00,0,0,0,2
131,2023-06-12T02:10:00,0,0,0,2
132,2023-06-12T02:11:00,0,0,0,2
133,2023-06-12T02:12:00,0,0,0,2
134,2023-06-12T02:13:00,0,0,0,2
135,2023-06-12T02:14:00,0,0,0,2
136,2023-06-12T02:15:00,0,0,0,2
137,2023-06-12T02:16:00,0,0,0,2
138,2023-06-12T02:17:00,0,0,0,2
139,2023-06-12T02:18:00,0,0,0,2
140,2023-06-12T02:19:00,0,0,0,2
141,2023-06-12T02:20:00,0,0,0,2
142,2023-06-12T02:21:00,0,0,0,2
143,2023-06-12T02:22:00,0,0,0,2
144,2023-06-12T02:23:00,0,0,0,2
145,2023-06-12T02:24:00,0,0,0,2
146,2023-06-12T02:25:00,0,0,0,2
147,2023-06-12T02:26:00,0,0,0,2
148,2023-06-12T02:27:00,0,0,0,2
149,2023-06-12T02:28:00,0,0,0,2
150,2023-06-12T02:29:00,0,0,0,2
151,2023-06-12T02:30:00,0,0,0,2
152,2023-06-12T02:31:00,0,0,0,2
153,2023-06-12T02:32:00,0,0,0,2
154,2023-06-12T02:33:00,0,0,0,2
155,2023-06-12T02:34:00,0,0,0,2
156,2023-06-12T02:35:00,0,0,0,2
157,2023-06-12T02:36:00,0,0,0,2
158,2023-06-12T02:37:00,0,0,0,2
159,2023-06-12T02:38:00,0,0,0,2
160,2023-06-12T02:39:00,0,0,0,2
161,2023-06-12T02:40:00,0,0,0,2
162,2023-06-12T02:41:00,0,0,0,2
163,2023-06-12T02:42:00,0,0,0,2
164,2023-06-12T02:43:00,0,0,0,2
165,2023-06-12T02:44:00,0,0,0,2
166,2023-06-12T02:45:00,0,0,0,2
167,2023-06-12T02:46:00,0,0,0,2
168,2023-06-12T02:47:00,0,0,0,2
169,2023-06-12T02:48:00,0,0,0,2
170,2023-06-12T02:49:00,0,0,0,2
171,2023-06-12T02:50:00,0,0,0,2
172,2023-06-12T02:51:00,0,0,0,2
173,2023-06-12T02:52:00,0,0,0,2
174,2023-06-12T02:53:00,0,0,0,2
175,2023-06-12T02:54:00,0,0,0,2
176,2023-06-12T02:55:00,0,0,0,2
177,2023-06-12T02:56:00,0,0,0,2
178,2023-06-12T02:57:00,0,0,0,2
179,2023-06-12T02:58:00,0,0,0,2
180,2023-06-12T02:59:00,0,0,0,2
181,2023-06-12T03:00:00,0,0,0,2
182,2023-06-12T03:01:00,0,0,0,2
183,2023-06-12T03:02:00,0,0,0,2
184,2023-06-12T03:03:00,0,0,0,2
185,2023-06-12T03:04:00,0,0,0,2
186,2023-06-12T03:05:00,0,0,0,2
187,2023-06-12T03:06:00,0,0,0,2
188,2023-06-12T03:07:00,0,0,0,2
189,2023-06-12T03:08:00,0,0,0,2
190,2023-06-12T03:09:00,0,0,0,2
191,2023-06-12T03:10:00,0,0,0,2
192,2023-06-12T03:11:00,0,0,0,2
193,2023-06-12T03:12:00,0,0,0,2
194,2023-06-12T03:13:00,0,0,0,2
195,2023-06-12T03:14:00,0,0,0,2
196,2023-06-12T03:15:00,0,0,0,2
197,2023-06-12T03:16:00,0,0,0,2
198,2023-06-12T03:17:00,0,0,0,2
199,2023-06-12T03:18:00,0,0,0,2
200,2023-06-12T03:19:00,0,0,0,2
201,2023-06-12T03:20:00,0,0,0,2
202,2023-06-12T03:21:00,0,0,0,2
203,2023-06-12T03:22:00,0,0,0,2
204,2023-06-12T03:23:00,0,0,0,2
205,2023-06-12T03:24:00,0,0,0,2
206,2023-06-12T03:25:00,0,0,0,2
207,2023-06-12T03:26:00,0,0,0,2
208,2023-06-12T03:27:00,0,0,0,2
209,2023-06-12T03:28:00,0,0,0,2
210,2023-06-12T03:29:00,0,0,0,2
211,2023-06-12T03:30:00,0,0,0,2
212,2023-06-12T03:31:00,0,0,0,2
213,2023-06-12T03:32:00,0,0,0,2
214,2023-06-12T03:33:00,0,0,0,2
215,2023-06-12T03:34:00,0,0,0,2
216,2023-06-12T03:35:00,0,0,0,2
217,2023-06-12T03:36:00,0,0,0,2
218,2023-06-12T03:37:00,0,0,0,2
219,2023-06-12T03:38:00,0,0,0,2
220,2023-06-12T03:39:00,0,0,0,2
221,2023-06-12T03:40:00,0,0,0,2
222,2023-06-12T03:41:00,0,0,0,2
223,2023-06-12T03:42:00,0,0,0,2
224,2023-06-12T03:43:00,0,0,0,2
225,2023-06-12T03:44:00,0,0,0,2
226,2023-06-12T03:45:00,0,0,0,2
227,2023-06-12T03:46:00,0,0,0,2
228,2023-06-12T03:47:00,0,0,0,2
229,2023-06-12T03:48:00,0,0,0,2
230,2023-06-12T03:49:00,0,0,0,2
231,2023-06-12T03:50:00,0,0,0,2
232,2023-06-12T03:51:00,0,0,0,2
233,2023-06-12T03:52:00,0,0,0,2
234,2023-06-12T03:53:00,0,0,0,2
235,2023-06-12T03:54:00,0,0,0,2
236,2023-06-12T03:55:00,0,0,0,2
237,2023-06-12T03:56:00,0,0,0,2
238,2023-06-12T03:57:00,0,0,0,2
239,2023-06-12T03:58:00,0,0,0,2
240,2023-06-12T03:59:00,0,0,0,2
241,2023-06-12T04:00:00,0,0,0,2
242,2023-06-12T04:01:00,0,0,0,2
243,2023-06-12T04:02:00,0,0,0,2
244,2023-06-12T04:03:00,0,0,0,2
245,2023-06-12T04:04:00,0,0,0,2
246,2023-06-12T04:05:00,0,0,0,2
247,2023-06-12T04:06:00,0,0,0,2
248,2023-06-12T04:07:00,0,0,0,2
249,2023-06-12T04:08:00,0,0,0,2
250,2023-06-12T04:09:00,0,0,0,2
251,2023-06-12T04:10:00,0,0,0,2
252,2023-06-12T04:11:00,0,0,0,2
253,2023-06-12T04:12:00,0,0,0,2
254,2023-06-12T04:13:00,0,0,0,2
255,2023-06-12T04:14:00,0,0,0,2
256,2023-06-12T04:15:00,0,0,0,2
257,2023-06-12T04:16:00,0,0,0,2
258,2023-06-12T04:17:00,0,0,0,2
259,2023-06-12T04:18:00,0,0,0,2
260,2023-06-12T04:19:00,0,0,0,2
261,2023-06-12T04:20:00,0,0,0,2
262,2023-06-12T04:21:00,0,0,0,2
263,2023-06-12T04:22:00,0,0,0,2
264,2023-06-12T04:23:00,0,0,0,2
265,2023-06-12T04:24:00,0,0,0,2
266,2023-06-12T04:25:00,0,0,0,2
267,2023-06-12T04:26:00,0,0,0,2
268,2023-06-12T04:27:00,0,0,0,2
269,2023-06-12T04:28:00,0,0,0,2
270,2023-06-12T04:29:00,0,0,0,2
271,2023-06-12T04:30:00,0,0,0,2
272,2023-06-12T04:31:00,0,0,0,2
273,2023-06-12T04:32:00,0,0,0,2
274,2023-06-12T04:33:00,0,0,0,2
275,2023-06-12T04:34:00,0,0,0,2
276,2023-06-12T04:35:00,0,0,0,2
277,2023-06-12T04:36:00,0,0,0,2
278,2023-06-12T04:37:00,0,0,0,2
279,2023-06-12T04:38:00,0,0,0,2
280,2023-06-12T04:39:00,0,0,0,2
281,2023-06-12T04:40:00,0,0,0,2
282,2023-06-12T04:41:00,0,0,0,2
283,2023-06-12T04:42:00,0,0,0,2
284,2023-06-12T04:43:00,0,0,0,2
285,2023-06-12T04:44:00,0,0,0,2
286,2023-06-12T04:45:00,0,0,0,2
287,2023-06-12T04:46:00,0,0,0,2
288,2023-06-12T04:47:00,0,0,0,2
289,2023-06-12T04:48:00,0,0,0,2
290,2023-06-12T04:49:00,0,0,0,2
291,2023-06-12T04:50:00,0,0,0,2
292,2023-06-12T04:51:00,0,0,0,2
293,2023-06-12T04:52:00,0,0,0,2
294,2023-06-12T04:53:00,0,0,0,2
295,2023-06-12T04:54:00,0,0,0,2
296,2023-06-12T04:55:00,0,0,0,2
297,2023-06-12T04:56:00,0,0,0,2
298,2023-06-12T04:57:00,0,0,0,2
299,2023-06-12T04:58:00,0,0,0,2
300,2023-06-12T04:59:00,0,0,0,2
301,2023-06-12T05:00:00,0,0,0,2
302,2023-06-12T05:01:00,0,0,0,2
303,2023-06-12T05:02:00,0,0,0,2
304,2023-06-12T05:03:00,0,0,0,2
305,2023-06-12T05:04:00,0,0,0,2
306,2023-06-12T05:05:00,0,0,0,2
307,2023-06-12T05:06:00,0,0,0,2
308,2023-06-12T05:07:00,0,0,0,2
309,2023-06-12T05:08:00,0,0,0,2
310,2023-06-12T05:09:00,0,0,0,2
311,2023-06-12T05:10:00,0,0,0,2
312,2023-06-12T05:11:00,0,0,0,2
313,2023-06-12T05:12:00,0.5,0.5,0.5,2.5
314,2023-06-12T05:13:00,0.5,0.5,0.5,2.5
315,2023-06-12T05:14:00,0.5,0.5,0.5,2.5
316,2023-06-12T05:15:00,0.5,0.5,0.5,2.5
317,2023-06-12T05:16:00,0.5,0.5,0.5,2.5
318,2023-06-12T05:17:00,0.5,0.5,0.5,2.5
319,2023-06-12T05:18:00,0.5,0.5,0.5,2.5
320,2023-06-12T05:19:00,1,1,1,3
321,2023-06-12T05:20:00,1,1,1,3
322,2023-06-12T05:21:00,1,1,1,3
323,2023-06-12T05:22:00,0.5,1,1,3
324,2023-06-12T05:23:00,0.5,1,1,3
325,2023-06-12T05:24:00,1,1.5,1.5,3.5
326,2023-06-12T05:25:00,1,1.5,1.5,3.5
327,2023-06-12T05:26:00,1.5,2,2,4
328,2023-06-12T05:27:00,1.5,2,2,4
329,2023-06-12T05:28:00,1.5,2,2,4
330,2023-06-12T05:29:00,1.5,2.5,2.5,4.5
331,2023-06-12T05:30:00,2,3,3,5
332,2023-06-12T05:31:00,2.5,3.5,3.5,5.5
333,2023-06-12T05:32:00,3,4,4,6
334,2023-06-12T05:33:00,3.5,4.5,4.5,6.5
335,2023-06-12T05:34:00,3,4.5,4.5,6.5
336,2023-06-12T05:35:00,3,4.5,4.5,6.5
337,2023-06-12T05:36:00,3,5,5,7
338,2023-06-12T05:37:00,3,5,5,7
339,2023-06-12T05:38:00,3,5,5,7
340,2023-06-12T05:39:00,2.5,5,5,7
341,2023-06-12T05:40:00,2,5,5,7
342,2023-06-12T05:41:00,1.5,5,5,7
343,2023-06-12T05:42:00,1.5,5.5,5.5,7.5
344,2023-06-12T05:43:00,1,5.5,5.5,7.5
345,2023-06-12T05:44:00,1,5.5,5.5,7.5
346,2023-06-12T05:45:00,1,5.5,5.5,7.5
347,2023-06-12T05:46:00,0.5,5.5,5.5,7.5
348,2023-06-12T05:47:00,0.5,5.5,5.5,7.5
349,2023-06-12T05:48:00,1,6,6,8
350,2023-06-12T05:49:00,1,6,6,8
351,2023-06-12T05:50:00,1,6,6,8
352,2023-06-12T05:51:00,1,6,6,8
353,2023-06-12T05:52:00,0.5,6,6,8
354,2023-06-12T05:53:00,1,6.5,6.5,8.5
355,2023-06-12T05:54:00,1,6.5,6.5,8.5
356,2023-06-12T05:55:00,1,6.5,6.5,8.5
357,2023-06-12T05:56:00,1,6.5,6.5,8.5
358,2023-06-12T05:57:00,1.5,7,7,9
359,2023-06-12T05:58:00,1,7,7,9
360,2023-06-12T05:59:00,1.5,7.5,7.5,9.5
361,2023-06-12T06:00:00,2,8,8,10
362,2023-06-12T06:01:00,2,8,8,10
363,2023-06-12T06:02:00,2,8,8,10
364,2023-06-12T06:03:00,2,8.5,8.5,10.5
365,2023-06-12T06:04:00,2,8.5,8.5,10.5
366,2023-06-12T06:05:00,2.5,9,9,11
367,2023-06-12T06:06:00,2.5,9,9,11
368,2023-06-12T06:07:00,2.5,9.5,9.5,11.5
369,2023-06-12T06:08:00,2.5,9.5,9.5,11.5
370,2023-06-12T06:09:00,2,9.5,9.5,11.5
371,2023-06-12T06:10:00,1.5,9.5,9.5,11.5
372,2023-06-12T06:11:00,2,10,10,12
373,2023-06-12T06:12:00,2,9.5,10,12
374,2023-06-12T06:13:00,2,10,10.5,12.5
375,2023-06-12T06:14:00,2.5,10.5,11,13
376,2023-06-12T06:15:00,2,10.5,11,13
377,2023-06-12T06:16:00,2.5,11,11.5,13.5
378,2023-06-12T06:17:00,2.5,11.5,12,14
379,2023-06-12T06:18:00,3,12,12.5,14.5
380,2023-06-12T06:19:00,3.5,12,13,15
381,2023-06-12T06:20:00,4,12.5,13.5,15.5
382,2023-06-12T06:21:00,4,13,14,16
383,2023-06-12T06:22:00,4.5,13.5,14.5,16.5
384,2023-06-12T06:23:00,4,13.5,14.5,16.5
385,2023-06-12T06:24:00,4,13.5,15,17
386,2023-06-12T06:25:00,4.5,14,15.5,17.5
387,2023-06-12T06:26:00,4.5,14,16,18
388,2023-06-12T06:27:00,4.5,14.5,16.5,18.5
389,2023-06-12T06:28:00,4,14.5,16.5,18.5
390,2023-06-12T06:29:00,3.5,14,16.5,18.5
391,2023-06-12T06:30:00,3.5,14,17,19
392,2023-06-12T06:31:00,3,13.5,17,19
393,2023-06-12T06:32:00,2.5,13,17,19
394,2023-06-12T06:33:00,3,13,17.5,19.5
395,2023-06-12T06:34:00,2.5,13,17.5,19.5
396,2023-06-12T06:35:00,2.5,13.5,18,20
397,2023-06-12T06:36:00,2,13,18,20
398,2023-06-12T06:37:00,2,13.5,18.5,20.5
399,2023-06-12T06:38:00,2,13.5,18.5,20.5
400,2023-06-12T06:39:00,2.5,14,19,21
401,2023-06-12T06:40:00,2,14,19,21
402,2023-06-12T06:41:00,2,14,19,21
403,2023-06-12T06:42:00,2.5,14,19.5,21.5
404,2023-06-12T06:43:00,2,14,19.5,21.5
405,2023-06-12T06:44:00,2.5,14.5,20,22
406,2023-06-12T06:45:00,2,14.5,20,22
407,2023-06-12T06:46:00,2.5,15,20.5,22.5
408,2023-06-12T06:47:00,2,15,20.5,22.5
409,2023-06-12T06:48:00,2.5,15,21,23
410,2023-06-12T06:49:00,2.5,15.5,21.5,23.5
411,2023-06-12T06:50:00,3,16,22,24
412,2023-06-12T06:51:00,3,16,22,24
413,2023-06-12T06:52:00,2.5,16,22,24
414,2023-06-12T06:53:00,3,16,22.5,24.5
415,2023-06-12T06:54:00,2.5,16,22.5,24.5
416,2023-06-12T06:55:00,3,16.5,23,25
417,2023-06-12T06:56:00,3,17,23.5,25.5
418,2023-06-12T06:57:00,3,16.5,23.5,25.5
419,2023-06-12T06:58:00,2.5,16.5,23.5,25.5
420,2023-06-12T06:59:00,2.5,16.5,24,26
421,2023-06-12T07:00:00,2.5,16.5,24.5,26.5
422,2023-06-12T07:01:00,2.5,16.5,24.5,26.5
423,2023-06-12T07:02:00,3,17,25,27
424,2023-06-12T07:03:00,2.5,16.5,25,27
425,2023-06-12T07:04:00,3,17,25.5,27.5
426,2023-06-12T07:05:00,2.5,16.5,25.5,27.5
427,2023-06-12T07:06:00,2,16.5,25.5,27.5
428,2023-06-12T07:07:00,2.5,16.5,26,28
429,2023-06-12T07:08:00,2.5,16.5,26,28
430,2023-06-12T07:09:00,2.5,17,26.5,28.5
431,2023-06-12T07:10:00,2,17,26.5,28.5
432,2023-06-12T07:11:00,2,16.5,26.5,28.5
433,2023-06-12T07:12:00,2,17,27,29
434,2023-06-12T07:13:00,2,16.5,27,29
435,2023-06-12T07:14:00,1.5,16,27,29
436,2023-06-12T07:15:00,1.5,16,27,29
437,2023-06-12T07:16:00,1.5,15.5,27,29
438,2023-06-12T07:17:00,1.5,15.5,27.5,29.5
439,2023-06-12T07:18:00,1.5,15,27.5,29.5
440,2023-06-12T07:19:00,1,14.5,27.5,29.5
441,2023-06-12T07:20:00,1,14,27.5,29.5
442,2023-06-12T07:21:00,1,13.5,27.5,29.5
443,2023-06-12T07:22:00,0.5,13,27.5,29.5
444,2023-06-12T07:23:00,0.5,13,27.5,29.5
445,2023-06-12T07:24:00,0.5,12.5,27.5,29.5
446,2023-06-12T07:25:00,0.5,12,27.5,29.5
447,2023-06-12T07:26:00,0.5,11.5,27.5,29.5
448,2023-06-12T07:27:00,0,11,27.5,29.5
449,2023-06-12T07:28:00,0.5,11.5,28,30
450,2023-06-12T07:29:00,0.5,11.5,28,30
451,2023-06-12T07:30:00,0.5,11,28,30
452,2023-06-12T07:31:00,0.5,11,28,30
453,2023-06-12T07:32:00,0.5,11,28,30
454,2023-06-12T07:33:00,0.5,10.5,28,30
455,2023-06-12T07:34:00,0.5,10.5,28,30
456,2023-06-12T07:35:00,0.5,10,28,30
457,2023-06-12T07:36:00,0.5,10,28,30
458,2023-06-12T07:37:00,1,10,28.5,30.5
459,2023-06-12T07:38:00,0.5,10,28.5,30.5
460,2023-06-12T07:39:00,0.5,9.5,28.5,30.5
461,2023-06-12T07:40:00,0.5,9.5,28.5,30.5
462,2023-06-12T07:41:00,0.5,9.5,28.5,30.5
463,2023-06-12T07:42:00,0.5,9,28.5,30.5
464,2023-06-12T07:43:00,0.5,9,28.5,30.5
465,2023-06-12T07:44:00,0.5,8.5,28.5,30.5
466,2023-06-12T07:45:00,0.5,8.5,28.5,30.5
467,2023-06-12T07:46:00,0.5,8,28.5,30.5
468,2023-06-12T07:47:00,0,8,28.5,30.5
469,2023-06-12T07:48:00,0,7.5,28.5,30.5
470,2023-06-12T07:49:00,0,7,28.5,30.5
471,2023-06-12T07:50:00,0,6.5,28.5,30.5
472,2023-06-12T07:51:00,0.5,7,29,31
473,2023-06-12T07:52:00,0.5,7,29,31
474,2023-06-12T07:53:00,0.5,6.5,29,31
475,2023-06-12T07:54:00,0.5,6.5,29,31
476,2023-06-12T07:55:00,0.5,6,29,31
477,2023-06-12T07:56:00,0.5,5.5,29,31
478,2023-06-12T07:57:00,0.5,5.5,29,31
479,2023-06-12T07:58:00,0.5,5.5,29,31
480,2023-06-12T07:59:00,0.5,5,29,31
481,2023-06-12T08:00:00,0.5,4.5,29,31
482,2023-06-12T08:01:00,0,4.5,29,31
483,2023-06-12T08:02:00,0,4,29,31
484,2023-06-12T08:03:00,0,4,29,31
485,2023-06-12T08:04:00,0,3.5,29,31
486,2023-06-12T08:05:00,0,3.5,29,31
487,2023-06-12T08:06:00,0,3.5,29,31
488,2023-06-12T08:07:00,0,3,29,31
489,2023-06-12T08:08:00,0,3,29,31
490,2023-06-12T08:09:00,0,2.5,29,31
491,2023-06-12T08:10:00,0,2.5,29,31
492,2023-06-12T08:11:00,0,2.5,29,31
493,2023-06-12T08:12:00,0,2,29,31
494,2023-06-12T08:13:00,0,2,29,31
495,2023-06-12T08:14:00,0,2,29,31
496,2023-06-12T08:15:00,0.5,2.5,29.5,31.5
497,2023-06-12T08:16:00,0.5,2.5,29.5,31.5
498,2023-06-12T08:17:00,0.5,2,29.5,31.5
499,2023-06-12T08:18:00,0.5,2,29.5,31.5
500,2023-06-12T08:19:00,0.5,2,29.5,31.5
501,2023-06-12T08:20:00,0.5,2,29.5,31.5
502,2023-06-12T08:21:00,0.5,2,29.5,31.5
503,2023-06-12T08:22:00,0.5,2,29.5,31.5
504,2023-06-12T08:23:00,0.5,2,29.5,31.5
505,2023-06-12T08:24:00,0.5,2,29.5,31.5
506,2023-06-12T08:25:00,0.5,2.5,30,32
507,2023-06-12T08:26:00,0.5,2.5,30,32
508,2023-06-12T08:27:00,0.5,2.5,30,32
509,2023-06-12T08:28:00,0.5,2,30,32
510,2023-06-12T08:29:00,0.5,2,30,32
511,2023-06-12T08:30:00,0.5,2,30,32
512,2023-06-12T08:31:00,0.5,2,30,32
513,2023-06-12T08:32:00,0.5,2,30,32
514,2023-06-12T08:33:00,0.5,2,30,32
515,2023-06-12T08:34:00,0.5,2,30,32
516,2023-06-12T08:35:00,0,2,30,32
517,2023-06-12T08:36:00,0,2,30,32
518,2023-06-12T08:37:00,0,1.5,30,32
519,2023-06-12T08:38:00,0,1.5,30,32
520,2023-06-12T08:39:00,0,1.5,30,32
521,2023-06-12T08:40:00,0,1.5,30,32
522,2023-06-12T08:41:00,0,1.5,30,32
523,2023-06-12T08:42:00,0,1.5,30,32
524,2023-06-12T08:43:00,0,1.5,30,32
525,2023-06-12T08:44:00,0,1.5,30,32
526,2023-06-12T08:45:00,0.5,2,30.5,32.5
527,2023-06-12T08:46:00,0.5,2,30.5,32.5
528,2023-06-12T08:47:00,0.5,2,30.5,32.5
529,2023-06-12T08:48:00,0.5,2,30.5,32.5
530,2023-06-12T08:49:00,0.5,2,30.5,32.5
531,2023-06-12T08:50:00,0.5,2,30.5,32.5
532,2023-06-12T08:51:00,0.5,1.5,30.5,32.5
533,2023-06-12T08:52:00,0.5,1.5,30.5,32.5
534,2023-06-12T08:53:00,0.5,1.5,30.5,32.5
535,2023-06-12T08:54:00,0.5,1.5,30.5,32.5
536,2023-06-12T08:55:00,0,1.5,30.5,32.5
537,2023-06-12T08:56:00,0.5,2,31,33
538,2023-06-12T08:57:00,0.5,2,31,33
539,2023-06-12T08:58:00,0.5,2,31,33
540,2023-06-12T08:59:00,0.5,2,31,33
541,2023-06-12T09:00:00,0.5,2,31,33
542,2023-06-12T09:01:00,0.5,2,31,33
543,2023-06-12T09:02:00,0.5,2,31,33
544,2023-06-12T09:03:00,0.5,2,31,33
545,2023-06-12T09:04:00,0.5,2,31,33
546,2023-06-12T09:05:00,0.5,2,31,33
547,2023-06-12T09:06:00,0,2,31,33
548,2023-06-12T09:07:00,0,2,31,33
549,2023-06-12T09:08:00,0,2,31,33
550,2023-06-12T09:09:00,0,2,31,33
551,2023-06-12T09:10:00,0,2,31,33
552,2023-06-12T09:11:00,0,2,31,33
553,2023-06-12T09:12:00,0,2,31,33
554,2023-06-12T09:13:00,0,2,31,33
555,2023-06-12T09:14:00,0,2,31,33
556,2023-06-12T09:15:00,0,1.5,31,33
557,2023-06-12T09:16:00,0,1.5,31,33
558,2023-06-12T09:17:00,0,1.5,31,33
559,2023-06-12T09:18:00,0,1.5,31,33
560,2023-06-12T09:19:00,0,1.5,31,33
561,2023-06-12T09:20:00,0,1.5,31,33
562,2023-06-12T09:21:00,0,1.5,31,33
563,2023-06-12T09:22:00,0,1.5,31,33
564,2023-06-12T09:23:00,0,1.5,31,33
565,2023-06-12T09:24:00,0,1.5,31,33
566,2023-06-12T09:25:00,0,1,31,33
567,2023-06-12T09:26:00,0,1,31,33
568,2023-06-12T09:27:00,0,1,31,33
569,2023-06-12T09:28:00,0,1,31,33
570,2023-06-12T09:29:00,0,1,31,33
571,2023-06-12T09:30:00,0,1,31,33
572,2023-06-12T09:31:00,0,1,31,33
573,2023-06-12T09:32:00,0,1,31,33
574,2023-06-12T09:33:00,0,1,31,33
575,2023-06-12T09:34:00,0,1,31,33
576,2023-06-12T09:35:00,0,1,31,33
577,2023-06-12T09:36:00,0,1,31,33
578,2023-06-12T09:37:00,0,1,31,33
579,2023-06-12T09:38:00,0,1,31,33
580,2023-06-12T09:39:00,0,1,31,33
581,2023-06-12T09:40:00,0,1,31,33
582,2023-06-12T09:41:00,0,1,31,33
583,2023-06-12T09:42:00,0,1,31,33
584,2023-06-12T09:43:00,0,1,31,33
585,2023-06-12T09:44:00,0,1,31,33
586,2023-06-12T09:45:00,0,0.5,31,33
587,2023-06-12T09:46:00,0,0.5,31,33
588,2023-06-12T09:47:00,0,0.5,31,33
589,2023-06-12T09:48:00,0,0.5,31,33
590,2023-06-12T09:49:00,0,0.5,31,33
591,2023-06-12T09:50:00,0,0.5,31,33
592,2023-06-12T09:51:00,0,0.5,31,33
593,2023-06-12T09:52:00,0,0.5,31,33
594,2023-06-12T09:53:00,0,0.5,31,33
595,2023-06-12T09:54:00,0,0.5,31,33
596,2023-06-12T09:55:00,0,0.5,31,33
597,2023-06-12T09:56:00,0,0,31,33
598,2023-06-12T09:57:00,0,0,31,33
599,2023-06-12T09:58:00,0,0,31,33
600,2023-06-12T09:59:00,0,0,31,33
601,2023-06-12T10:00:00,0,0,31,33
602,2023-06-12T10:01:00,0,0,31,33
603,2023-06-12T10:02:00,0,0,31,33
604,2023-06-12T10:03:00,0,0,31,33
605,2023-06-12T10:04:00,0,0,31,33
606,2023-06-12T10:05:00,0,0,31,33
607,2023-06-12T10:06:00,0,0,31,33
608,2023-06-12T10:07:00,0,0,31,33
609,2023-06-12T10:08:00,0,0,31,33
610,2023-06-12T10:09:00,0,0,31,33
611,2023-06-12T10:10:00,0,0,31,33
612,2023-06-12T10:11:00,0,0,31,33
613,2023-06-12T10:12:00,0,0,31,33
614,2023-06-12T10:13:00,0,0,31,33
615,2023-06-12T10:14:00,0,0,31,33
616,2023-06-12T10:15:00,0,0,31,33
617,2023-06-12T10:16:00,0,0,31,33
618,2023-06-12T10:17:00,0,0,31,33
619,2023-06-12T10:18:00,0,0,31,33
620,2023-06-12T10:19:00,0,0,31,33
621,2023-06-12T10:20:00,0,0,31,33
622,2023-06-12T10:21:00,0,0,31,33
623,2023-06-12T10:22:00,0,0,31,33
624,2023-06-12T10:23:00,0,0,31,33
625,2023-06-12T10:24:00,0,0,31,33
626,2023-06-12T10:25:00,0,0,31,33
627,2023-06-12T10:26:00,0,0,31,33
628,2023-06-12T10:27:00,0,0,31,33
629,2023-06-12T10:28:00,0,0,31,33
630,2023-06-12T10:29:00,0,0,31,33
631,2023-06-12T10:30:00,0,0,31,33
632,2023-06-12T10:31:00,0,0,31,33
633,2023-06-12T10:32:00,0,0,31,33
634,2023-06-12T10:33:00,0,0,31,33
635,2023-06-12T10:34:00,0,0,31,33
636,2023-06-12T10:35:00,0,0,31,33
637,2023-06-12T10:36:00,0,0,31,33
638,2023-06-12T10:37:00,0,0,31,33
639,2023-06-12T10:38:00,0,0,31,33
640,2023-06-12T10:39:00,0,0,31,33
641,2023-06-12T10:40:00,0,0,31,33
642,2023-06-12T10:41:00,,,,
643,2023-06-12T10:42:00,0,0,31,33
644,2023-06-12T10:43:00,0,0,31,33
645,2023-06-12T10:44:00,0,0,31,33
646,2023-06-12T10:45:00,0,0,31,33
647,2023-06-12T10:46:00,0,0,31,33
648,2023-06-12T10:47:00,0,0,31,33
649,2023-06-12T10:48:00,0,0,31,33
650,2023-06-12T10:49:00,0,0,31,33
651,2023-06-12T10:50:00,0,0,31,33
652,2023-06-12T10:51:00,0,0,31,33
653,2023-06-12T10:52:00,0,0,31,33
654,2023-06-12T10:53:00,0,0,31,33
655,2023-06-12T10:54:00,0,0,31,33
656,2023-06-12T10:55:00,0,0,31,33
657,2023-06-12T10:56:00,0,0,31,33
658,2023-06-12T10:57:00,0,0,31,33
659,2023-06-12T10:58:00,0,0,31,33
660,2023-06-12T10:59:00,0,0,31,33
661,2023-06-12T11:00:00,0,0,31,33
662,2023-06-12T11:01:00,0,0,31,33
663,2023-06-12T11:02:00,0,0,31,33
664,2023-06-12T11:03:00,0,0,31,33
665,2023-06-12T11:04:00,0,0,31,33
666,2023-06-12T11:05:00,0,0,31,33
667,2023-06-12T11:06:00,0,0,31,33
668,2023-06-12T11:07:00,0,0,31,33
669,2023-06-12T11:08:00,0,0,31,33
670,2023-06-12T11:09:00,0,0,31,33
671,2023-06-12T11:10:00,0,0,31,33
672,2023-06-12T11:11:00,0,0,31,33
673,2023-06-12T11:12:00,0,0,31,33
674,2023-06-12T11:13:00,0,0,31,33
675,2023-06-12T11:14:00,0,0,31,33
676,2023-06-12T11:15:00,0,0,31,33
677,2023-06-12T11:16:00,0,0,31,33
678,2023-06-12T11:17:00,0,0,31,33
679,2023-06-12T11:18:00,0,0,31,33
680,2023-06-12T11:19:00,0,0,31,33
681,2023-06-12T11:20:00,0,0,31,33
682,2023-06-12T11:21:00,0,0,31,33
683,2023-06-12T11:22:00,0,0,31,33
684,2023-06-12T11:23:00,0,0,31,33
685,2023-06-12T11:24:00,0,0,31,33
686,2023-06-12T11:25:00,0,0,31,33
687,2023-06-12T11:26:00,0,0,31,33
688,2023-06-12T11:27:00,0,0,31,33
689,2023-06-12T11:28:00,0,0,31,33
690,2023-06-12T11:29:00,0,0,31,33
691,2023-06-12T11:30:00,0,0,31,33
692,2023-06-12T11:31:00,0,0,31,33
693,2023-06-12T11:32:00,0,0,31,33
694,2023-06-12T11:33:00,0,0,31,33
695,2023-06-12T11:34:00,0,0,31,33
696,2023-06-12T11:35:00,0,0,31,33
697,2023-06-12T11:36:00,0,0,31,33
698,2023-06-12T11:37:00,0,0,31,33